STARLINK-33745, 63714

Orbit data source: Space-Track

STARLINK-33745, 63714 is a payload satellite owned by SpaceX/Seattle (US) in LEO that was launched on Mon, 28 Apr 2025 UTC via an FALCON 9 launch vehicle from the Air Force Western Test Range (AFWTR). Payload-class satellites include a variety of spacecraft equipped with specific instruments for various scientific and technological missions. These include communications satellites like Starlink; space stations such as the ISS; scientific satellites like the Hubble; Earth observation satellites from companies like Planet Labs, Umbra, and HawkEye 360; GPS; miniature CubeSats for education and research; and military/defense satellites.

Loading next visibility...
Identifier
63714, 2025-087T
Orbit
LEO
Country
Flag of USUS
Related business
Manufacturer
SpaceX/Seattle
Mission
Operational Commercial Communications
Bus & Motor
STARLINK V2MO, Unknown motor
Mass
575 kg wet, ~530 kg dry
Launch date (UTC)
2025-04-28 (8 months ago)
Launch vehicle
FALCON 9
Launch site
Air Force Western Test Range (AFWTR)
Object type
Payload
Rocket body
Debris
Shape & HBR
Box + 2 Pan, 17.7 m
Radar Cross Section
36.964 m², Large (>1 m²)

Expand to show TLE details & history
Last TLE update: 17 hours ago

TLE from 17 hours ago
0 STARLINK-33745
1 63714U 25087T   25348.91786525  .00020790  00000-0  71244-3 0  9997
2 63714  53.1601 253.1009 0001321  92.2885 267.8267 15.30185027 36223
Epoch: 2025-12-14T22:01Z
TLE epoch observation values (Epoch: 2025-12-14T22:01:43.557Z)
Latitude
-0.00003°
Longitude
-161.15451°
Altitude
476.194 km
Speed
7.629 km/s
True Right ascension
16h 52m 24s
True Declination
0° 00' 00"
Sunlit
Object was in daylight at epoch
Visualization orbit readout
Latitude
Unknown
Longitude
Unknown
Altitude
Unknown
Speed
Unknown
Apparent Right ascension
Unknown
Apparent Declination
Unknown
Sunlit
N/A
Visualization observer readout
Local Sidereal Time
13:31:02
Azimuth
Unknown
Elevation
Unknown
Doppler factor
Unknown
Orbital elements
Apogee altitude
476.422 km
Perigee altitude
474.611 km
Semi-major axis
6,853.653 km
Eccentricity
0.00013
Inclination
53.1601°
RAAN
253.1009°
Arg. of periapsis
92.2885°
True anomaly
267.81157°
Mean anomaly
267.8267°
Eccentric anomaly
267.81914°
Mean motion
3.82525 °/min
Orbital period
94.11 mins
BSTAR
0.00071244
Loading maneuver chart data...
Computing Atmospheric mass density...
Loading historical data...
Loading historical data...
Loading historical data...
Loading historical data...
Loading historical data...
Loading historical data...
Loading historical data...

Documentation

Showing up to 5 results
|